Search for airport 
image banner adimage banner ad
image banner ad

DAUI - In Salah

Located in In Salah, Algeria

ICAO - DAUI, IATA - INZ

Data provided by Airmate  

General information

Coordinates: N27°15'13" E2°30'39"
Elevation is 895 feet MSL.
 
View others Airports in Tamanghasset Province

Operational data

Open for public use
Current time UTC:
Current local time:
Weather
METAR: DAUI 291000Z 06020KT 8000 DRSA NSC 25/00 Q1019
TAF: TAF DAUI 290500Z 2906/3006 04020KT 8000 NSC PROB40 TEMPO 2906/2914 04020G30KT 2000 DRSA PROB30 2920/3004 04020G30KT 1000 BLSA
View NOTAMs / SUP AIP / TFR affecting this airport [VIEW]
Communications frequencies: [VIEW]

Runways:

RWY identifierQFULength (ft)Width (ft)SurfaceLDA (ft)
0551°9843148ASP
23231°9843148

Airport contact information

Address: In Salah Algeria

Satellite view of DAUI